[[{"header":{"parameterUnit":"m.s-1","parameterCategory":1,"la1":30.2992,"la2":30.254,"lo1":-89.0895,"lo2":-89.0443,"dy":0.0025,"dx":0.0025,"nx":19,"ny":19,"refTime":"2026-03-07T03:00:00:Z","depth":0,"parameterNumber":2,"parameterNumberName":"U-component_of_WINDS"},"data":[0,0,0,-3.6852,-3.6853,-3.6899,-3.6899,-3.6966,-3.6967,0,0,0,0,0,0,0,0,0,0,0,-3.6842,-3.6843,-3.6852,-3.6853,-3.6899,-3.6899,-3.6966,-3.6967,0,0,0,0,0,0,0,0,0,0,0,-3.6842,-3.6842,-3.6843,-3.6853,-3.6899,-3.6899,-3.6966,-3.6929,0,0,0,0,0,0,0,0,0,0,-3.6882,-3.6877,-3.6842,-3.6843,-3.6854,-3.6899,-3.6899,-3.6927,-3.6931,-3.6948,0,-3.6964,0,-3.6967,-3.6972,-3.6972,0,0,0,-3.685,-3.6873,-3.6882,-3.6843,-3.6854,-3.6899,-3.6878,-3.6929,-3.6934,-3.6954,-3.6965,-3.6967,-3.6968,-3.6972,-3.6973,-3.7082,-3.7083,0,0,-3.6848,-3.6852,-3.6879,-3.6886,-3.6878,-3.6876,-3.6879,-3.6932,-3.6944,-3.6965,-3.6969,-3.6969,-3.6973,-3.6973,-3.7082,-3.7082,0,0,0,-3.6842,-3.6851,-3.6858,-3.6883,-3.6891,-3.6878,-3.6881,-3.6942,-3.6944,-3.697,-3.697,-3.6973,-3.6974,-3.7081,-3.7082,-3.7117,0,0,0,-3.6841,-3.6847,-3.6857,-3.6861,-3.689,-3.6917,-3.689,-3.694,-3.6946,-3.6969,-3.6973,-3.6975,-3.708,-3.7081,-3.7115,-3.7132,0,0,0,-3.6838,-3.6847,-3.6855,-3.6861,-3.6881,-3.6916,-3.6921,-3.6941,-3.6947,-3.6972,-3.6975,-3.708,-3.7081,-3.7112,-3.7129,-3.7162,0,0,0,-3.6836,-3.6885,-3.6856,-3.6912,-3.688,-3.6938,-3.692,-3.6963,-3.6989,-3.6974,-3.708,-3.7082,-3.7112,-3.7127,-3.716,-3.719,-3.7204,0,0,-3.6901,-3.6893,-3.6926,-3.6901,-3.6964,-3.693,-3.6999,-3.7019,-3.7018,-3.7061,-3.7064,-3.7115,-3.7129,-3.7162,-3.728,-3.729,0,0,0,-3.6948,-3.6971,-3.6987,-3.7013,-3.703,-3.7046,-3.7055,-3.7063,-3.71,-3.7041,-3.7137,-3.7145,-3.7164,-3.7179,-3.7188,-3.7204,-3.7089,-3.7089,-3.7089,-3.7044,-3.7041,-3.7095,-3.7098,-3.7123,-3.7133,-3.7154,-3.7166,-3.7154,-3.7178,-3.719,-3.7262,-3.7279,-3.7285,-3.7302,-3.7207,-3.7207,-3.7207,-3.7207,-3.7138,-3.7171,-3.7157,-3.7203,-3.72,-3.724,-3.7253,-3.7244,-3.7281,-3.7252,-3.7269,-3.7235,-3.7297,-3.7312,-3.721,-3.7209,-3.7209,-3.7209,-3.7209,-3.72,-3.7215,-3.7224,-3.7262,-3.7292,-3.7294,-3.7331,-3.7327,-3.7323,-3.734,-3.7353,-3.7352,-3.735,-3.7347,-3.7347,-3.7348,-3.7348,-3.7348,-3.7348,-3.7259,-3.7269,-3.73,-3.7324,-3.7341,-3.7363,-3.7376,-3.7393,-3.741,-3.7405,-3.7405,-3.7391,-3.7304,-3.7282,-3.7352,-3.7351,-3.7351,-3.735,-3.735,-3.7352,-3.7331,-3.7379,-3.7396,-3.7425,-3.7456,-3.7452,-3.7487,-3.7501,-3.7519,-3.7503,-3.744,-3.7432,-3.7425,-3.7406,-3.7504,-3.7504,-3.7504,-3.7504,-3.7403,-3.7399,-3.7448,-3.7476,-3.7503,-3.7505,-3.756,-3.7573,-3.7582,-3.759,-3.7576,-3.7552,-3.7545,-3.7541,-3.7531,-3.7513,-3.7637,-3.7637,-3.7637,-3.746,-3.7459,-3.7506,-3.7515,-3.7538,-3.7559,-3.7611,-3.7645,-3.7651,-3.7642,-3.7597,-3.7591,-3.7552,-3.7539,-3.7526,-3.7511,-3.7478,0,0]},{"header":{"parameterUnit":"m.s-1","parameterCategory":1,"la1":30.2992,"la2":30.254,"lo1":-89.0895,"lo2":-89.0443,"dy":0.0025,"dx":0.0025,"nx":19,"ny":19,"refTime":"2026-03-07T03:00:00:Z","depth":0,"parameterNumber":3,"parameterNumberName":"V-component_of_WINDS"},"data":[0,0,0,2.7135,2.7136,2.7211,2.7211,2.7285,2.7285,0,0,0,0,0,0,0,0,0,0,0,2.7098,2.7098,2.7135,2.7136,2.721,2.7211,2.7285,2.7285,0,0,0,0,0,0,0,0,0,0,0,2.7098,2.7098,2.7098,2.7136,2.721,2.7211,2.7284,2.7236,0,0,0,0,0,0,0,0,0,0,2.7168,2.7119,2.7098,2.7098,2.7137,2.721,2.7211,2.7234,2.7239,2.7241,0,2.7238,0,2.7263,2.7289,2.7289,0,0,0,2.7147,2.7115,2.7148,2.7098,2.7137,2.721,2.718,2.7237,2.7243,2.7248,2.7239,2.7243,2.7264,2.7289,2.7289,2.7264,2.7263,0,0,2.7143,2.7104,2.7144,2.7151,2.7137,2.7178,2.7182,2.7241,2.723,2.724,2.7245,2.7265,2.7289,2.729,2.7265,2.7264,0,0,0,2.7124,2.71,2.7133,2.7147,2.7162,2.7179,2.7185,2.7227,2.7241,2.7246,2.7266,2.729,2.729,2.7265,2.7264,2.7197,0,0,0,2.7122,2.7089,2.713,2.7107,2.7161,2.7195,2.7169,2.7237,2.7245,2.7266,2.729,2.7291,2.7266,2.7265,2.72,2.7172,0,0,0,2.7098,2.7087,2.7093,2.7105,2.7136,2.7195,2.7213,2.7239,2.7256,2.7289,2.7291,2.7267,2.7265,2.7203,2.7177,2.7156,0,0,0,2.7062,2.703,2.7091,2.7063,2.7135,2.7152,2.7213,2.7228,2.7247,2.729,2.7266,2.7264,2.7204,2.718,2.7159,2.7133,2.7117,0,0,2.7,2.7021,2.7008,2.7065,2.7061,2.7144,2.7132,2.7186,2.7225,2.7249,2.7249,2.7199,2.7177,2.7157,2.7042,2.7029,0,0,0,2.6975,2.6965,2.6973,2.699,2.7031,2.7065,2.7126,2.7147,2.7169,2.7229,2.7186,2.7174,2.7164,2.7153,2.7143,2.7138,2.7257,2.7257,2.7257,2.6831,2.6883,2.6866,2.6928,2.6943,2.7008,2.7026,2.7066,2.7112,2.7101,2.7109,2.7033,2.7019,2.7011,2.7005,2.7098,2.7097,2.7097,2.7097,2.6747,2.6743,2.6807,2.6814,2.687,2.6876,2.6938,2.6971,2.6987,2.703,2.7024,2.7069,2.6996,2.6994,2.7092,2.7093,2.7094,2.7094,2.7095,2.6661,2.6668,2.6694,2.6726,2.6745,2.6809,2.6821,2.6871,2.6918,2.6911,2.6927,2.6929,2.6939,2.6915,2.6915,2.6915,2.6914,2.6914,2.6914,2.6561,2.6593,2.6597,2.664,2.6659,2.6691,2.6756,2.6777,2.6813,2.6848,2.6849,2.6898,2.6978,2.6999,2.691,2.6911,2.6911,2.6912,2.6912,2.646,2.6492,2.6498,2.6517,2.6574,2.6591,2.6654,2.6693,2.6717,2.6722,2.6774,2.6824,2.6849,2.6858,2.6876,2.6761,2.6761,2.6761,2.6761,2.6389,2.6407,2.6427,2.6455,2.6488,2.6547,2.6555,2.6607,2.6665,2.6684,2.6708,2.6734,2.6741,2.6763,2.6774,2.6791,2.6657,2.6657,2.6657,2.6332,2.6355,2.6352,2.6409,2.6457,2.6498,2.6509,2.654,2.6613,2.6654,2.6701,2.6705,2.6749,2.676,2.6803,2.6818,2.6851,0,0]}]]